Content
SEND FEEDBACK

Daily
Averages
Monthly
Summary
United States of America

NEW YORK - CENTRAL PARK, NEW YORK


Home > North America > United States > New York
Elevation: 14 feet     Latitude: 40 47N     Longitude: 073 58W

WEATHER
 
SELECT A DAY
Number of Records: 148,168;   Date Range: 11/1/95 - 8/12/14
 
SHARE

PRINT THIS DATA

[ ← Previous Day ]
WEATHER ALMANAC - MARCH 14, 2014
[ Next Day → ]
[ °C ]   °F
Weather ElementAverageHighLow
Temperature34.2 °F44.1 °F (3:51 pm)21.9 °F (1:51 am)
Dewpoint10.1 °F24.1 °F (9:51 pm)-2.9 °F (2:51 am)
Humidity37.3 %51 % (9:51 pm)25 % (3:51 pm)
Barometer30.10 in30.22 in (8:51 am)29.91 in (11:51 pm)
Wind Speed5.5 mph9.2 mph (3:51 am)
Wind Gust20.7 mph (12:51 pm)
Weather ElementAverage
Visibility10 mi
Wind DirectionENE (80.9 °)

Weather ElementTotal
Precipitation---
Heating Degree Days32 (Base 65)
Averaged from 23 records on March 14, 2014
WEATHER CONDITIONS BREAKOUT
WIND DIRECTION BREAKOUT
WEATHER BY HOUR - MARCH 14, 2014
[ °C ]   °F
Local TimeTemperatureDewpointHumidityBarometerVisibilityWind DirectionWind SpeedGust SpeedPrecipitationEventsConditions
1:51 AM21.9 °F-2.0 °F35 %30.12 in10.0 miVariable5.8 mphClear
2:51 AM21.9 °F-2.9 °F34 %30.13 in10.0 miVariable4.6 mphOvercast
3:51 AM23.0 °F-2.9 °F32 %30.13 in10.0 miWest (280°)9.2 mphPartly Cloudy
4:51 AM23.0 °F-2.0 °F34 %30.17 in10.0 miVariable4.6 mphClear
5:51 AM23.0 °F-2.9 °F32 %30.18 in10.0 miCalmClear
6:51 AM24.1 °F-2.0 °F32 %30.19 in10.0 miVariable4.6 mphClear
7:51 AM26.1 °F1.0 °F34 %30.21 in10.0 miVariable6.9 mphClear
8:51 AM28.0 °F3.0 °F34 %30.22 in10.0 miVariable3.5 mphOvercast
9:51 AM30.0 °F6.1 °F36 %30.22 in10.0 miVariable4.6 mphOvercast
10:51 AM32.0 °F7.0 °F35 %30.20 in10.0 miVariable5.8 mphOvercast
11:51 AM35.1 °F8.1 °F33 %30.18 in10.0 miVariable3.5 mphOvercast
12:51 PM36.0 °F10.0 °F34 %30.17 in10.0 miVariable5.8 mph20.7 mphOvercast
1:51 PM39.9 °F10.9 °F31 %30.14 in10.0 miWSW (250°)9.2 mphScattered Clouds
2:51 PM42.1 °F10.0 °F27 %30.10 in10.0 miSouth (190°)8.1 mph20.7 mphClear
3:51 PM44.1 °F10.0 °F25 %30.07 in10.0 miSSW (210°)9.2 mphClear
4:51 PM44.1 °F19.0 °F37 %30.03 in10.0 miVariable3.5 mphClear
5:51 PM43.0 °F21.0 °F42 %30.00 in10.0 miSouth (180°)6.9 mph17.3 mphClear
6:51 PM42.1 °F23.0 °F47 %29.99 in10.0 miSouth (170°)8.1 mphClear
7:51 PM41.0 °F23.0 °F49 %29.97 in10.0 miSouth (180°)6.9 mphClear
8:51 PM41.0 °F23.0 °F49 %29.97 in10.0 miSouth (180°)8.1 mphClear
9:51 PM41.0 °F24.1 °F51 %29.96 in10.0 miSW (220°)4.6 mphClear
10:51 PM42.1 °F24.1 °F49 %29.94 in10.0 miCalmClear
11:51 PM43.0 °F24.1 °F47 %29.91 in10.0 miVariable3.5 mphClear
Hourly data recorded from KNYC, located miles away from New York - Central Park, New York







STORIES FROM OUR PARTNERS